Estació meteorològica de La Molina (Cerdanya, La molina)

Consulta les dades en temps real de l'estació meteorològica de La Molina





Hora UTC 11:00
Temperatura 6.6 ºC
Humitat 86.0 %
Pressió hPa
Pluja 0.0 mm
Velocitat vent 0.7 km/h
Direcció vent N

Dades diàries 2026-05-07



Hora UTC (hivern +1h; estiu +2h)
Temperatura (ºC) Humitat (%) Pressió (hPa) Velocitat vent (km/h) Precipitació (mm)
Hora UTC Aire Humitat Pressió Vel. Dir. Vel. Max Dir. Intent. màx 5 min.
00:15 3.2 93.6 0.2 0.2 N 0.0
00:30 2.9 94.0 0.1 N 0.2 N 0.0
00:45 2.9 93.7 0.2 N 0.0
01:00 3.0 94.0 NNE 0.2 N 0.0
01:15 3.1 94.1 0.2 N 0.0
01:30 3.1 94.0 0.0 N 0.2 N 0.0
01:45 3.2 94.2 0.5 0.5 N 0.0
02:00 3.2 94.0 NNE 0.5 N 0.0
02:15 3.2 94.1 0.5 N 0.0
02:30 3.2 94.0 0.1 N 0.5 N 0.0
02:45 3.1 94.2 0.2 0.5 N 0.0
03:00 3.1 94.0 NNE 0.5 N 0.0
03:15 3.4 94.6 0.3 0.5 N 0.0
03:30 3.3 94.0 0.1 N 0.5 N 0.0
03:45 3.4 94.3 0.5 N 0.0
04:00 3.5 94.0 NNE 0.5 N 0.0
04:15 3.6 94.2 0.2 0.5 N 0.0
04:30 3.4 94.0 0.1 N 0.5 N 0.0
04:45 3.1 93.8 0.5 N 0.0
05:00 3.0 94.0 0.4 N 0.5 N 0.0
05:15 2.9 94.2 0.1 0.5 N 0.0
05:30 2.5 94.0 NNE 0.5 N 0.0
05:45 2.3 94.0 0.2 0.5 N 0.0
06:00 2.2 94.0 NNE 0.5 N 0.0
06:15 1.9 94.1 0.2 0.5 N 0.0
06:30 1.7 94.0 0.2 N 0.5 N 0.0
06:45 1.7 94.1 0.5 N 0.0
07:00 1.6 94.0 NNE 0.5 N 0.0
07:15 1.5 94.2 0.5 N 0.0
07:30 1.8 95.0 0.3 N 0.5 N 0.0
07:45 2.4 94.7 0.5 N 0.0
08:00 3.3 95.0 NNE 0.5 N 0.0
08:15 3.8 94.4 0.5 N 0.0
08:30 4.3 93.0 NNE 0.5 N 0.0
08:45 4.7 92.8 0.5 N 0.0
09:00 4.9 91.0 0.2 N 0.5 N 0.0
09:15 5.1 91.7 0.5 N 0.0
09:30 5.3 91.0 NNE 0.5 N 0.0
09:45 5.5 91.1 0.5 N 0.0
10:00 5.8 91.0 0.4 N 0.5 N 0.0
10:15 6.1 91.0 0.1 0.5 N 0.0
10:30 6.1 89.0 0.5 N 0.5 N 0.0
10:45 6.3 85.3 0.4 0.5 N 0.0
11:00 6.6 86.0 0.7 N 0.7 N 0.0
Màxima 6.6 95.0 0.7 N 0.7 N 0.0
Mínima 1.5 85.3 9999
Total 0.0